CHINASAT 12

导读

CHINASAT 12(中星十二号)是中国卫通运营的通信卫星,于北京时间2012年11月27日,在西昌卫星发射中心由长征三号乙运载火箭发射升空,定点于东经87.5度地球同步轨道。卫星搭载47个C/Ku频段转发器,覆盖中国及东亚、非洲等区域,可提供通信、广播电视传输等服务,扩充了我国卫星通信资源容量。

Basic Information
目录编号:
39017
目录名称:
CHINASAT 12
国际标识:
2012-067A
轨道中心:
EARTH
卫星名称:
CHINASAT 12
卫星全名:
--
卫星状态:
在轨 (已飞行4989 天)
发射日期:
2012-11-27 UTC
国别 :
中国 (CN)
星等 :
--
Orbit Information
数据来源 国际轨道数据 AOE轨道数据
星历时间 2026-07-26T07:41:39+0800
14小时前
查看轨道信息
2026-07-22T03:00:00+0800
4天前
查看轨道信息
半长轴 42164.644km 42164.953km
偏心率 0.0002919 0.0002806
轨道倾角 0.024° 0.049°
近地点辐角 13.100° 17.806°
升交点赤经 104.596° 98.794°
平近点角 268.893° 195.433°
近地点 35774.199km 35774.984km
远地点 35798.815km 35798.648km
周期 1436.092分钟 1436.108分钟
每日圈数 1.002721 1.00271
Detailed Information
使用方式:
暂无
2D Orbit Map
3D Orbit Map
Orbit Altitude Analysis Chart
Orbit Inclination Analysis Chart
Orbit Comprehensive Analysis Chart
View Comprehensive Chart